Printer-friendly version
Follow the MPC on Twitter Follow the MPC on Facebook The MPC blog
Minor Planet Center

MPEC 2010-M54 : 2010 MY1

The following Minor Planet Electronic Circular may be linked-to from your own Web pages, but must not otherwise be redistributed electronically.

A form allowing access to any MPEC is at the bottom of this page.


Read MPEC 2010-M53 Read MPEC 2010-M55


M.P.E.C. 2010-M54                                Issued 2010 June 24, 18:09 UT

     The Minor Planet Electronic Circulars contain information on unusual
         minor planets and routine data on comets.  They are published
   on behalf of Commission 20 of the International Astronomical Union by the
          Minor Planet Center, Smithsonian Astrophysical Observatory,
                          Cambridge, MA 02138, U.S.A.

             Prepared using the Tamkin Foundation Computer Network

                              MPC@CFA.HARVARD.EDU
       URL http://www.minorplanetcenter.org/iau/mpc.html  ISSN 1523-6714

                                   2010 MY1

Observations:
     K10M01Y* C2010 06 23.27543 14 59 52.80 +43 51 46.6          18.8 V EM054703
     K10M01Y  C2010 06 23.28119 14 59 48.30 +43 52 02.1          19.6 V EM054703
     K10M01Y  C2010 06 23.28697 14 59 43.65 +43 52 15.1          19.7 V EM054703
     K10M01Y  C2010 06 23.29275 14 59 39.12 +43 52 31.2          20.2 V EM054703
     K10M01Y  C2010 06 23.31045 14 59 25.15 +43 53 12.8          19.9 V EM054703
     K10M01Y  C2010 06 23.31123 14 59 24.64 +43 53 15.2          19.4 V EM054703
     K10M01Y  C2010 06 23.31238 14 59 23.64 +43 53 18.0          19.7 V EM054703
     K10M01Y  C2010 06 23.31298 14 59 23.31 +43 53 19.1          19.6 V EM054703
     K10M01Y  C2010 06 23.40435 14 58 13.40 +43 56 47.1          20.0 V EM054G96
     K10M01Y  C2010 06 23.40471 14 58 13.11 +43 56 48.0          20.0 V EM054G96
     K10M01Y  C2010 06 23.40508 14 58 12.86 +43 56 48.6          19.9 V EM054G96
     K10M01Y  C2010 06 23.40544 14 58 12.57 +43 56 49.4          19.7 V EM054G96
     K10M01Y KC2010 06 23.89757 14 52 08.35 +44 22 04.3          18.8 R EM054B04
     K10M01Y KC2010 06 23.90474 14 52 02.04 +44 22 24.4          18.8 R EM054B04
     K10M01Y KC2010 06 23.91258 14 51 55.17 +44 22 46.3          19.2 R EM054B04
     K10M01Y KC2010 06 23.92041 14 51 48.27 +44 23 07.6          19.2 R EM054B04
     K10M01Y KC2010 06 23.93960 14 51 33.82 +44 23 47.2                 EM054J95
     K10M01Y KC2010 06 23.94658 14 51 27.85 +44 24 06.3                 EM054J95
     K10M01Y KC2010 06 23.95448 14 51 20.91 +44 24 28.3          20.0 R EM054J95
     K10M01Y  C2010 06 24.16582 14 48 33.78 +44 36 34.1          19.2 R EM054926
     K10M01Y  C2010 06 24.16853 14 48 31.19 +44 36 42.9          19.8 R EM054926
     K10M01Y  C2010 06 24.17124 14 48 28.62 +44 36 51.4          19.6 R EM054926
     K10M01Y  C2010 06 24.22799 14 47 34.76 +44 39 31.7          19.3 V EM054G96
     K10M01Y  C2010 06 24.22838 14 47 34.40 +44 39 33.2          19.5 V EM054G96
     K10M01Y  C2010 06 24.22876 14 47 34.04 +44 39 34.2          19.5 V EM054G96
     K10M01Y  C2010 06 24.23776 14 47 25.58 +44 39 58.8          19.5 R EM054854
     K10M01Y  C2010 06 24.24220 14 47 21.00 +44 40 09.9          19.7 R EM054854
     K10M01Y  C2010 06 24.24665 14 47 17.09 +44 40 23.4          19.5 R EM054854

Observer details:
703 Catalina Sky Survey.  Observer R. E. Hill.  Measurers J. D. Ahern,
    E. C. Beshore, A. Boattini, G. J. Garradd, A. R. Gibbs, A. D. Grauer,
    R. E. Hill, R. A. Kowalski, S. M. Larson, R. H. McNaught.  0.68-m Schmidt
    + CCD.
854 Sabino Canyon Observatory, Tucson.  Observer J. E. McGaha.  0.36-m f/10.0
    Schmidt-Cassegrain + CCD.
926 Tenagra II Observatory.  Observers P. R. Holvorcem, M. Schwartz.  Measurer
    P. R. Holvorcem.  0.81-m f/7 Ritchey-Chretien + CCD.
B04 OAVdA, Saint-Barthelemy.  Observer A. Carbognani.  0.81-m f/7.9 reflector
    + CCD.
G96 Mt. Lemmon Survey.  Observer A. R. Gibbs.  Measurers J. D. Ahern,
    E. C. Beshore, A. Boattini, G. J. Garradd, A. R. Gibbs, A. D. Grauer,
    R. E. Hill, R. A. Kowalski, S. M. Larson, R. H. McNaught.  1.5-m reflector
    + CCD.
J95 Great Shefford.  Observer P. Birtwhistle.  0.40-m f/6.0 Schmidt-Cassegrain
    + CCD.

Orbital elements:
2010 MY1                                                 Earth MOID = 0.0167 AU
Epoch 2010 July 23.0 TT = JDT 2455400.5                 MPC
M 347.72843              (2000.0)            P               Q
n   0.73543843     Peri.  218.75914     +0.77227183     +0.61343453
a   1.2155472      Node   102.60135     -0.53254396     +0.76689311
e   0.2119102      Incl.    9.74641     -0.34640028     +0.18860816
P   1.34           H   23.7           G   0.15           U   8
Residuals in seconds of arc
100623 703  0.0   0.7-    100623 G96  0.5+  0.2-    100624 926  0.5+  0.1+
100623 703  0.7+  0.4+    100623 G96  0.3+  0.2-    100624 926  0.4+  0.4+
100623 703  0.2-  0.9-    100623 B04  0.5+  0.0     100624 G96  0.4+  0.2-
100623 703  0.1+  0.9+    100623 B04  0.4+  0.1+    100624 G96  0.5+  0.2+
100623 703  0.5-  0.3-    100623 B04  0.5+  0.4+    100624 G96  0.5+  0.2+
100623 703  0.6+  0.3+    100623 B04  0.2+  0.3+    100624 854  1.3+  0.4-
100623 703  0.5-  0.3+    100623 J95  0.6-  0.1-    100624 854  2.6-  1.3-
100623 703  1.1+  0.0     100623 J95  0.8+  0.2-    100624 854  0.6+  0.3+
100623 G96  0.5+  0.1-    100623 J95  0.3+  0.2+
100623 G96  0.3+  0.0     100624 926  0.7+  0.4-

Ephemeris:
2010 MY1                 a,e,i = 1.22, 0.21, 10                  q = 0.9580
Date    TT    R. A. (2000) Decl.     Delta      r     Elong.  Phase     V
2010 06 23    15 03.22   +43 38.1    0.0458   1.026   101.0    76.5    19.7
2010 06 24    14 50.85   +44 27.4    0.0423   1.023    98.3    79.3    19.7
2010 06 25    14 35.91   +45 18.4    0.0389   1.021    95.3    82.5    19.6
2010 06 26    14 17.65   +46 09.1    0.0356   1.018    91.8    86.2    19.5
2010 06 27    13 55.12   +46 55.1    0.0325   1.016    87.6    90.6    19.5
2010 06 28    13 27.19   +47 28.0    0.0295   1.013    82.6    95.7    19.5
2010 06 29    12 52.81   +47 33.3    0.0268   1.011    76.6   101.9    19.6
2010 06 30    12 11.56   +46 48.7    0.0244   1.008    69.5   109.2    19.8
2010 07 01    11 24.54   +44 45.4    0.0224   1.006    61.0   117.9    20.2
2010 07 02    10 34.94   +40 59.4    0.0210   1.004    51.3   127.8    20.8
2010 07 03    09 47.14   +35 28.7    0.0203   1.001    40.8   138.4    21.9
2010 07 04    09 04.70   +28 43.5    0.0204   0.999    30.5   148.9    23.5

Carl W. Hergenrother         (C) Copyright 2010 MPC           M.P.E.C. 2010-M54

Read MPEC 2010-M53 Read MPEC 2010-M55


MPEC number:

Enter an MPEC number in one of the following forms:

  • 1997-B01 (the full form)
  • J97B01 (the packed version of the full form)
  • B01 (the abbreviated form)

Valid HTML 4.01!